Location: Honolulu
(21.3069°N, 157.8583°W)
Time: 07:18:56
(UTC-10:00)

Vanguard 2 Rocket - Pass Details

Date: 23 May 2026
Orbit: 553 x 3286 km, 32.9° (Epoch: 10 June)

Event Time Altitude Azimuth Distance (km) Brightness Sun altitude
Rises 05:15:24 0° 191° (S) 2,855 9.1 -8.3°
Reaches altitude 10° 05:18:39 10° 161° (SSE) 2,178 8.8 -7.6°
Maximum altitude 05:21:01 13° 133° (SE) 2,167 9.1 -7.1°
Drops below altitude 10° 05:23:48 10° 105° (ESE) 2,674 10.1 -6.5°
Sets 05:28:47 0° 81° (E) 4,199 12.2 -5.5°
